STARLINK-32797, 62843

Orbit data source: Space-Track

STARLINK-32797, 62843 is a payload satellite owned by SpaceX/Seattle (US) in LEO that was launched on Mon, 27 Jan 2025 UTC via an FALCON 9 launch vehicle from the Air Force Eastern Test Range (AFETR). Payload-class satellites include a variety of spacecraft equipped with specific instruments for various scientific and technological missions. These include communications satellites like Starlink; space stations such as the ISS; scientific satellites like the Hubble; Earth observation satellites from companies like Planet Labs, Umbra, and HawkEye 360; GPS; miniature CubeSats for education and research; and military/defense satellites.

Loading next visibility...
Identifier
62843, 2025-019Q
Orbit
LEO
Country
Flag of USUS
Related business
Manufacturer
SpaceX/Seattle
Mission
Operational Commercial Communications
Bus & Motor
STARLINK V2M, Unknown motor
Mass
730 kg wet, ~700 kg dry
Launch date (UTC)
2025-01-27 (1 year ago)
Launch vehicle
FALCON 9
Launch site
Air Force Eastern Test Range (AFETR)
Object type
Payload
Rocket body
Debris
Shape & HBR
Box + 2 Pan, 17.7 m
Radar Cross Section
33.884 m², Large (>1 m²)

Expand to show TLE details & history
Last TLE update: 1 day ago

TLE from 1 day ago
0 STARLINK-32797
1 62843U 25019Q   26167.50127538  .00010928  00000-0  40597-3 0  9991
2 62843  43.0002 250.8851 0001478 258.8733 101.1952 15.27587735 77361
Epoch: 2026-06-16T12:01Z
TLE epoch observation values (Epoch: 2026-06-16T12:01:50.192Z)
Latitude
-0.00007°
Longitude
165.65349°
Altitude
482.998 km
Speed
7.626 km/s
True Right ascension
16h 43m 32s
True Declination
0° 00' 00"
Sunlit
Object was in full shadow at epoch
Visualization orbit readout
Latitude
Unknown
Longitude
Unknown
Altitude
Unknown
Speed
Unknown
Apparent Right ascension
Unknown
Apparent Declination
Unknown
Sunlit
N/A
Visualization observer readout
Local Sidereal Time
07:17:15
Azimuth
Unknown
Elevation
Unknown
Doppler factor
Unknown
Orbital elements
Apogee altitude
485.985 km
Perigee altitude
483.957 km
Semi-major axis
6,863.108 km
Eccentricity
0.00015
Inclination
43.0002°
RAAN
250.8851°
Arg. of periapsis
258.8733°
True anomaly
101.21181°
Mean anomaly
101.1952°
Eccentric anomaly
101.20351°
Mean motion
3.81735 °/min
Orbital period
94.31 mins
BSTAR
0.00040597
Loading maneuver chart data...
Computing Atmospheric mass density...
Loading historical data...
Loading historical data...
Loading historical data...
Loading historical data...
Loading historical data...
Loading historical data...
Loading historical data...

Documentation

Showing up to 5 results
|